| time (UTC) | temp F | wind direction | speed MPH | gust MPH | rain 1hr in | rain 24hr in | rain mn in | humidity % | barometer mb |
| 20260504011550 | 65 | 269 | 9.0 | 11.0 | 0.00 | 0.00 | 0.00 | 35 | 1004.7 |
| 20260504010053 | 66 | 260 | 7.0 | 10.0 | 0.00 | 0.00 | 0.00 | 37 | 1004.6 |
| 20260504004552 | 67 | 248 | 8.0 | 10.0 | 0.00 | 0.00 | 0.00 | 37 | 1004.6 |
| 20260504003055 | 67 | 254 | 5.0 | 8.0 | 0.00 | 0.00 | 0.00 | 31 | 1004.8 |
| 20260504001605 | 67 | 262 | 7.0 | 9.0 | 0.00 | 0.00 | 0.00 | 28 | 1004.9 |
| 20260504000106 | 67 | 276 | 9.0 | 12.0 | 0.00 | 0.00 | 0.00 | 29 | 1004.9 |
| 20260503234549 | 67 | 279 | 11.0 | 15.0 | 0.00 | 0.00 | 0.00 | 31 | 1005.0 |
| 20260503233054 | 66 | 288 | 12.0 | 14.0 | 0.00 | 0.00 | 0.00 | 30 | 1004.9 |
| 20260503231552 | 67 | 277 | 11.0 | 13.0 | 0.00 | 0.00 | 0.00 | 29 | 1005.1 |
| 20260503230057 | 66 | 287 | 7.0 | 11.0 | 0.00 | 0.00 | 0.00 | 33 | 1005.3 |
| 20260503224547 | 66 | 290 | 11.0 | 13.0 | 0.00 | 0.00 | 0.00 | 29 | 1005.4 |
| 20260503223047 | 66 | 304 | 10.0 | 16.0 | 0.00 | 0.00 | 0.00 | 30 | 1005.4 |
| 20260503221557 | 66 | 298 | 9.0 | 14.0 | 0.00 | 0.00 | 0.00 | 35 | 1005.5 |
| 20260503220052 | 65 | 284 | 9.0 | 12.0 | 0.00 | 0.00 | 0.00 | 35 | 1005.7 |
| 20260503214549 | 64 | 298 | 8.0 | 11.0 | 0.00 | 0.00 | 0.00 | 41 | 1005.7 |
| 20260503213047 | 65 | 293 | 10.0 | 14.0 | 0.00 | 0.00 | 0.00 | 33 | 1005.8 |
| 20260503211546 | 65 | 291 | 9.0 | 12.0 | 0.00 | 0.00 | 0.00 | 30 | 1005.9 |
| 20260503210047 | 65 | 295 | 11.0 | 16.0 | 0.00 | 0.00 | 0.00 | 34 | 1006.0 |
| 20260503204552 | 64 | 266 | 6.0 | 8.0 | 0.00 | 0.00 | 0.00 | 38 | 1006.1 |
| 20260503203050 | 65 | 305 | 12.0 | 17.0 | 0.00 | 0.00 | 0.00 | 31 | 1006.2 |
| 20260503201550 | 64 | 303 | 9.0 | 12.0 | 0.00 | 0.00 | 0.00 | 33 | 1006.4 |
| 20260503200056 | 63 | 320 | 13.0 | 17.0 | 0.00 | 0.00 | 0.00 | 39 | 1006.6 |
| 20260503194551 | 63 | 319 | 13.0 | 18.0 | 0.00 | 0.00 | 0.00 | 36 | 1006.8 |
| 20260503193059 | 63 | 312 | 17.0 | 23.0 | 0.00 | 0.00 | 0.00 | 38 | 1006.9 |
| 20260503191549 | 63 | 305 | 10.0 | 14.0 | 0.00 | 0.00 | 0.00 | 37 | 1007.0 |
| 20260503190051 | 62 | 314 | 10.0 | 16.0 | 0.00 | 0.00 | 0.00 | 39 | 1007.1 |
| 20260503184549 | 63 | 305 | 11.0 | 17.0 | 0.00 | 0.00 | 0.00 | 35 | 1007.2 |
| 20260503183112 | 63 | 315 | 14.0 | 24.0 | 0.00 | 0.00 | 0.00 | 36 | 1007.3 |
| 20260503181614 | 62 | 313 | 12.0 | 17.0 | 0.00 | 0.00 | 0.00 | 42 | 1007.4 |
| 20260503180048 | 62 | 333 | 10.0 | 19.0 | 0.00 | 0.00 | 0.00 | 46 | 1007.5 |
| 20260503174549 | 62 | 325 | 10.0 | 18.0 | 0.00 | 0.00 | 0.00 | 47 | 1007.5 |
| 20260503173056 | 62 | 324 | 16.0 | 21.0 | 0.00 | 0.00 | 0.00 | 43 | 1007.7 |
| 20260503171555 | 61 | 306 | 14.0 | 18.0 | 0.00 | 0.00 | 0.00 | 42 | 1007.7 |
| 20260503100104 | 55 | 209 | 3.0 | 7.0 | 0.00 | 0.00 | 0.00 | 49 | 1005.1 |
| 20260503081552 | 57 | 248 | 4.0 | 10.0 | 0.00 | 0.00 | 0.00 | 45 | 1005.6 |
| 20260503071552 | 59 | 255 | 3.0 | 11.0 | 0.00 | 0.00 | 0.00 | 46 | 1005.9 |
| 20260503070110 | 60 | 237 | 1.0 | 7.0 | 0.00 | 0.00 | 0.00 | 45 | 1006.2 |